KD8UYA Weather Reports


Display with metric or nautical units.
time (UTC)temp
F
wind
direction
speed
MPH
gust
MPH
rain 1hr
in
rain 24hr
in
rain mn
in
humidity
%
barometer
mb
20260506154520 50 300 6.0 13.0 0.00 1.19 0.33 81 1009.4
20260506153017 50 287 4.0 11.0 0.00 1.19 0.33 82 1009.2
20260506151516 50 347 4.0 11.0 0.00 1.19 0.33 83 1008.9
20260506150011 49 279 2.0 12.0 0.00 1.19 0.33 87 1008.7
20260506144516 49 287 4.0 10.0 0.00 1.19 0.33 86 1008.6
20260506143007 48 281 5.0 10.0 0.00 1.19 0.33 86 1008.5
20260506141511 47 309 3.0 9.0 0.00 1.19 0.33 87 1008.4
20260506140002 47 311 4.0 9.0 0.00 1.19 0.33 90 1008.3
20260506134501 46 281 2.0 10.0 0.00 1.19 0.33 91 1008.4
20260506133114 46 283 1.0 9.0 0.00 1.19 0.33 93 1008.3
20260506131616 46 290 2.0 10.0 0.00 1.19 0.33 95 1008.1
20260506130057 45 269 0.0 8.0 0.00 1.19 0.33 96 1007.6
20260506124553 45 339 1.0 4.0 0.00 1.19 0.33 97 1007.1
20260506123054 45 288 0.0 5.0 0.01 1.19 0.33 98 1007.1
20260506121556 44 282 2.0 7.0 0.01 1.19 0.33 98 1007.3
20260506120100 44 254 0.0 6.0 0.01 1.19 0.33 98 1007.0
20260506114548 44 323 0.0 2.0 0.01 1.19 0.33 98 1007.1
20260506113047 44 328 0.0 0.0 0.00 1.18 0.32 98 1007.0
20260506111548 44 326 2.0 4.0 0.00 1.18 0.32 98 1006.7
20260506110054 44 292 1.0 5.0 0.00 1.18 0.32 98 1006.5
20260506104556 44 17 2.0 6.0 0.00 1.18 0.32 98 1006.1
20260506103045 44 306 2.0 6.0 0.01 1.18 0.32 98 1005.9
20260506101537 44 39 0.0 3.0 0.02 1.18 0.32 98 1005.4
20260506100035 44 58 1.0 3.0 0.04 1.18 0.32 98 1004.8
20260506094535 44 28 2.0 7.0 0.04 1.18 0.32 97 1005.5
20260506093032 45 291 1.0 6.0 0.03 1.17 0.31 98 1006.1
20260506091530 45 347 3.0 9.0 0.03 1.15 0.30 98 1006.0
20260506090029 45 326 0.0 6.0 0.03 1.13 0.28 98 1005.6
20260506084603 45 15 0.0 3.0 0.04 1.13 0.28 98 1005.6
20260506083027 44 29 0.0 5.0 0.06 1.13 0.28 97 1005.4
20260506081536 44 355 0.0 5.0 0.06 1.12 0.27 97 1005.6
20260506073021 45 58 1.0 5.0 0.07 1.08 0.22 97 1005.4
20260506071519 45 333 0.0 4.0 0.05 1.06 0.20 97 1005.1
20260506061514 45 23 0.0 2.0 0.10 1.01 0.15 97 1005.4
20260506044503 46 16 3.0 5.0 0.05 0.89 0.03 97 1005.7
20260506043100 46 33 1.0 6.0 0.06 0.88 0.02 97 1005.8
20260506041607 47 9 1.0 10.0 0.07 0.87 0.01 97 1005.9
20260506040055 47 51 2.0 6.0 0.08 0.86 0.00 97 1006.0
20260506034555 48 350 1.0 3.0 0.08 0.84 0.84 98 1006.2
20260506033050 48 38 1.0 4.0 0.10 0.82 0.82 98 1006.2
20260506031549 48 48 1.0 4.0 0.12 0.80 0.80 97 1006.2
20260506030047 48 321 0.0 0.0 0.12 0.78 0.78 98 1006.5
20260506024546 48 321 0.0 0.0 0.13 0.76 0.76 98 1006.6
20260506023100 48 322 0.0 0.0 0.12 0.72 0.72 97 1006.1
20260506021605 48 39 0.0 5.0 0.12 0.68 0.68 97 1006.0
20260506020041 48 42 1.0 4.0 0.15 0.66 0.66 97 1005.6
20260506014540 48 30 2.0 4.0 0.15 0.63 0.63 97 1005.6
20260506013039 48 39 2.0 5.0 0.17 0.59 0.59 97 1005.7
20260506011540 49 76 0.0 2.0 0.14 0.55 0.55 97 1005.6
20260506010038 49 77 0.0 5.0 0.10 0.51 0.51 97 1005.4
20260506004536 48 92 0.0 4.0 0.07 0.48 0.48 97 1005.2
20260506003037 48 90 1.0 4.0 0.03 0.42 0.42 97 1005.1
20260506001536 49 90 1.0 3.0 0.04 0.41 0.41 97 1005.0
20260506000033 49 29 2.0 5.0 0.08 0.41 0.41 96 1005.0
20260505234530 49 32 1.0 6.0 0.21 0.41 0.41 96 1004.9
20260505233028 50 26 2.0 6.0 0.23 0.39 0.39 96 1004.9
20260505231541 51 5 2.0 3.0 0.22 0.37 0.37 96 1005.2
20260505230026 51 337 2.0 5.0 0.20 0.33 0.33 96 1005.2
20260505224520 52 338 2.0 8.0 0.06 0.19 0.19 96 1005.3
20260505223018 54 46 5.0 11.0 0.03 0.16 0.16 94 1004.6
20260505221514 56 307 0.0 3.0 0.03 0.15 0.15 96 1004.6
20260505220012 56 308 0.0 5.0 0.02 0.13 0.13 96 1004.7
20260505214512 56 273 1.0 4.0 0.09 0.13 0.13 96 1004.6
20260505213017 56 279 0.0 7.0 0.11 0.13 0.13 96 1004.6
20260505211513 57 237 2.0 6.0 0.11 0.12 0.12 95 1004.6
20260505210013 57 260 3.0 8.0 0.10 0.11 0.11 94 1004.7
20260505204506 57 288 3.0 7.0 0.03 0.04 0.04 93 1004.7
20260505203125 58 300 0.0 5.0 0.03 0.03 0.03 93 1004.4
20260505201501 58 309 2.0 9.0 0.01 0.01 0.01 91 1004.7
20260505200059 59 302 3.0 8.0 0.01 0.01 0.01 89 1004.5
20260505194557 60 287 4.0 8.0 0.01 0.01 0.01 86 1004.5
20260505193055 62 249 3.0 9.0 0.00 0.00 0.00 82 1004.6
20260505191608 63 293 3.0 9.0 0.00 0.00 0.00 80 1004.5
20260505190055 63 229 4.0 9.0 0.00 0.00 0.00 78 1004.7
20260505184555 63 256 2.0 9.0 0.00 0.00 0.00 78 1004.8
20260505183053 63 247 5.0 10.0 0.00 0.00 0.00 76 1004.9
20260505181552 64 306 6.0 15.0 0.00 0.00 0.00 75 1004.9
20260505180053 64 284 2.0 10.0 0.00 0.00 0.00 76 1004.8
20260505174550 64 269 4.0 17.0 0.00 0.00 0.00 75 1004.7
20260505173055 64 266 5.0 14.0 0.00 0.00 0.00 74 1004.5
20260505171550 64 280 7.0 14.0 0.00 0.00 0.00 72 1004.6
20260505170103 64 277 5.0 11.0 0.00 0.00 0.00 72 1004.5
20260505164547 65 270 7.0 14.0 0.00 0.00 0.00 71 1004.5
20260505163044 65 236 9.0 18.0 0.00 0.00 0.00 70 1004.5
20260505161643 66 288 7.0 15.0 0.00 0.00 0.00 69 1004.5